����,���ϕ���(m/s),���ϕ���,�ő�u�ԕ���(m/s),�ő啗��������,�C��(��),���x(%),10���Ԉړ��ώZ�J��(mm),1���Ԉړ��ώZ�J��(mm),���J��(mm),�݌v�J��(mm)
2023-09-04T00:00:00+09:00,2.4,��,4.3,���k��,25.9,81.1,0,0,0,0
2023-09-04T00:01:00+09:00,2.4,��,4.3,���k��,25.9,81.2,0,0,0,0
2023-09-04T00:02:00+09:00,2.4,��,4.3,���k��,25.9,81.3,0,0,0,0
2023-09-04T00:03:00+09:00,2.3,��,4.3,���k��,25.9,81.3,0,0,0,0
2023-09-04T00:04:00+09:00,2.2,��,4.3,���k��,25.9,81.3,0,0,0,0
2023-09-04T00:05:00+09:00,2.1,��,4,���k��,25.9,81.3,0,0,0,0
2023-09-04T00:06:00+09:00,2,��,4,���k��,26,81.3,0,0,0,0
2023-09-04T00:07:00+09:00,2,��,4,���k��,26,81.3,0,0,0,0
2023-09-04T00:08:00+09:00,2,��,4,���k��,26,81.3,0,0,0,0
2023-09-04T00:09:00+09:00,2,��,4,���k��,26,81.4,0,0,0,0
2023-09-04T00:10:00+09:00,2,��,4,���k��,26,81.3,0,0,0,0
2023-09-04T00:11:00+09:00,2.1,��,4.2,��,26,81.2,0,0,0,0
2023-09-04T00:12:00+09:00,2.1,��,4.2,��,26,81.1,0,0,0,0
2023-09-04T00:13:00+09:00,2.1,��,4.2,��,26,81,0,0,0,0
2023-09-04T00:14:00+09:00,2.2,��,4.5,�쓌,26,81.1,0,0,0,0
2023-09-04T00:15:00+09:00,2.3,��,5,���쓌,26,81.2,0,0,0,0
2023-09-04T00:16:00+09:00,2.5,��,5.8,���쓌,26.1,81.1,0,0,0,0
2023-09-04T00:17:00+09:00,2.7,��,5.8,���쓌,26.1,80.8,0,0,0,0
2023-09-04T00:18:00+09:00,2.7,��,5.8,���쓌,26,80.6,0,0,0,0
2023-09-04T00:19:00+09:00,2.7,��,5.8,���쓌,26.1,80.6,0,0,0,0
2023-09-04T00:20:00+09:00,2.7,��,5.8,���쓌,26.1,80.7,0,0,0,0
2023-09-04T00:21:00+09:00,2.5,��,5.8,���쓌,26.1,80.7,0,0,0,0
2023-09-04T00:22:00+09:00,2.4,���쓌,5.8,���쓌,26.2,80.7,0,0,0,0
2023-09-04T00:23:00+09:00,2.4,���쓌,5.8,���쓌,26.2,80.6,0,0,0,0
2023-09-04T00:24:00+09:00,2.3,��,5.8,���쓌,26.2,80.6,0,0,0,0
2023-09-04T00:25:00+09:00,2.2,��,5.8,���쓌,26.1,80.5,0,0,0,0
2023-09-04T00:26:00+09:00,2,��,5,��,26.1,80.6,0,0,0,0
2023-09-04T00:27:00+09:00,1.9,��,3.5,���k��,26.1,80.8,0,0,0,0
2023-09-04T00:28:00+09:00,1.8,��,3.5,���k��,26.1,81.1,0,0,0,0
2023-09-04T00:29:00+09:00,1.8,��,3.5,���k��,26,81.2,0,0,0,0
2023-09-04T00:30:00+09:00,1.8,��,3.5,���k��,26,81.3,0,0,0,0
2023-09-04T00:31:00+09:00,1.8,��,3.5,���k��,26,81.3,0,0,0,0
2023-09-04T00:32:00+09:00,1.9,��,3.5,���k��,26,81.3,0,0,0,0
2023-09-04T00:33:00+09:00,1.8,��,3.5,���k��,26,81.3,0,0,0,0
2023-09-04T00:34:00+09:00,1.8,��,3.5,���k��,26,81.2,0,0,0,0
2023-09-04T00:35:00+09:00,1.6,��,3.5,���k��,26,81.3,0,0,0,0
2023-09-04T00:36:00+09:00,1.4,��,3.3,���k��,26.2,81.7,0,0,0,0
2023-09-04T00:37:00+09:00,1.3,��,3.3,���k��,26.3,81.3,0,0,0,0
2023-09-04T00:38:00+09:00,1.3,��,3.3,���k��,26.2,80.8,0,0,0,0
2023-09-04T00:39:00+09:00,1.2,���쓌,3.3,���k��,26.1,80.8,0,0,0,0
2023-09-04T00:40:00+09:00,1,���쓌,3.3,���k��,26.1,81,0,0,0,0
2023-09-04T00:41:00+09:00,0.9,���쓌,3.3,���k��,26,81.3,0,0,0,0
2023-09-04T00:42:00+09:00,0.7,�쓌,1.9,���k��,26,81.5,0,0,0,0
2023-09-04T00:43:00+09:00,0.7,�쓌,1.8,���k��,25.9,81.9,0,0,0,0
2023-09-04T00:44:00+09:00,0.6,�쓌,1.4,�쓌,26.2,82.8,0,0,0,0
2023-09-04T00:45:00+09:00,0.6,�쓌,1.4,�쓌,26.2,81.9,0,0,0,0
2023-09-04T00:46:00+09:00,0.7,��쓌,1.4,�쓌,26.1,81.5,0,0,0,0
2023-09-04T00:47:00+09:00,0.8,��쓌,1.7,��,26,81.5,0,0,0,0
2023-09-04T00:48:00+09:00,0.7,��쓌,1.7,��,25.9,81.6,0,0,0,0
2023-09-04T00:49:00+09:00,0.6,��쓌,1.7,��,26,82,0,0,0,0
2023-09-04T00:50:00+09:00,0.6,��쓌,1.7,��,25.9,82.1,0,0,0,0
2023-09-04T00:51:00+09:00,0.6,��쓌,1.7,��,26,82.3,0,0,0,0
2023-09-04T00:52:00+09:00,0.7,��쓌,1.7,��,26.2,82.7,0,0,0,0
2023-09-04T00:53:00+09:00,0.7,��쓌,1.7,��,26.1,81.8,0,0,0,0
2023-09-04T00:54:00+09:00,0.7,��쓌,1.7,��,26,81.7,0,0,0,0
2023-09-04T00:55:00+09:00,0.7,��쓌,1.7,��,25.9,81.8,0,0,0,0
2023-09-04T00:56:00+09:00,0.8,��쓌,3,�쓌,25.9,82,0,0,0,0
2023-09-04T00:57:00+09:00,0.9,��쓌,3,�쓌,25.9,82,0,0,0,0
2023-09-04T00:58:00+09:00,1,��쓌,3,�쓌,26,81.9,0,0,0,0
2023-09-04T00:59:00+09:00,1.1,��쓌,3,�쓌,26.1,81.8,0,0,0,0
2023-09-04T01:00:00+09:00,1.2,��쓌,3,�쓌,26.2,81.7,0,0,0,0
2023-09-04T01:01:00+09:00,1.2,��쓌,3,�쓌,26.1,81,0,0,0,0
2023-09-04T01:02:00+09:00,1.2,��쓌,3,�쓌,26,80.9,0,0,0,0
2023-09-04T01:03:00+09:00,1.2,��쓌,3,�쓌,26,81.1,0,0,0,0
2023-09-04T01:04:00+09:00,1.2,�쓌,3,�쓌,25.9,81.3,0,0,0,0
2023-09-04T01:05:00+09:00,1.1,�쓌,3,�쓌,25.8,81.6,0,0,0,0
2023-09-04T01:06:00+09:00,1,�쓌,2.8,��쓌,25.8,82,0,0,0,0
2023-09-04T01:07:00+09:00,1,�쓌,2.8,��쓌,25.7,82.2,0,0,0,0
2023-09-04T01:08:00+09:00,1,��쓌,2.8,��쓌,25.8,82.7,0,0,0,0
2023-09-04T01:09:00+09:00,0.9,��쓌,2.8,��쓌,25.7,82.6,0,0,0,0
2023-09-04T01:10:00+09:00,0.9,��쓌,2.2,��쓌,25.6,82.7,0,0,0,0
2023-09-04T01:11:00+09:00,0.9,��쓌,2.2,��쓌,25.7,83.1,0,0,0,0
2023-09-04T01:12:00+09:00,0.8,��쓌,2.2,��쓌,25.7,83.4,0,0,0,0
2023-09-04T01:13:00+09:00,0.7,��쓌,2.2,��쓌,25.6,83.5,0,0,0,0
2023-09-04T01:14:00+09:00,0.7,��쓌,2.2,��쓌,25.6,83.5,0,0,0,0
2023-09-04T01:15:00+09:00,0.7,��쓌,2.2,��쓌,25.6,83.8,0,0,0,0
2023-09-04T01:16:00+09:00,0.7,��쓌,2.2,��쓌,25.6,83.7,0,0,0,0
2023-09-04T01:17:00+09:00,0.6,��쓌,1.8,��쓌,25.6,83.7,0,0,0,0
2023-09-04T01:18:00+09:00,0.6,��쓌,1.8,��쓌,25.6,83.8,0,0,0,0
2023-09-04T01:19:00+09:00,0.7,�쓌,2.4,���쓌,25.6,83.9,0,0,0,0
2023-09-04T01:20:00+09:00,0.8,�쓌,3,�쓌,25.7,83.7,0,0,0,0
2023-09-04T01:21:00+09:00,1,�쓌,3,�쓌,25.7,83.6,0,0,0,0
2023-09-04T01:22:00+09:00,1.1,�쓌,3,�쓌,25.8,83.8,0,0,0,0
2023-09-04T01:23:00+09:00,1.3,�쓌,3,�쓌,25.7,83.1,0,0,0,0
2023-09-04T01:24:00+09:00,1.4,�쓌,3,�쓌,25.7,83,0,0,0,0
2023-09-04T01:25:00+09:00,1.5,�쓌,3,�쓌,25.6,83,0,0,0,0
2023-09-04T01:26:00+09:00,1.6,�쓌,3,�쓌,25.6,83,0,0,0,0
2023-09-04T01:27:00+09:00,1.5,�쓌,3,�쓌,25.6,83.1,0,0,0,0
2023-09-04T01:28:00+09:00,1.6,�쓌,3,�쓌,25.6,83.3,0,0,0,0
2023-09-04T01:29:00+09:00,1.5,�쓌,3,�쓌,25.6,83.5,0,0,0,0
2023-09-04T01:30:00+09:00,1.4,�쓌,2.8,�쓌,25.6,83.5,0,0,0,0
2023-09-04T01:31:00+09:00,1.3,�쓌,2.8,�쓌,25.6,83.7,0,0,0,0
2023-09-04T01:32:00+09:00,1.3,�쓌,2.8,�쓌,25.6,83.5,0,0,0,0
2023-09-04T01:33:00+09:00,1.3,�쓌,2.4,�쓌,25.6,83.4,0,0,0,0
2023-09-04T01:34:00+09:00,1.4,�쓌,2.4,�쓌,25.6,83.4,0,0,0,0
2023-09-04T01:35:00+09:00,1.3,�쓌,2.4,�쓌,25.6,83.3,0,0,0,0
2023-09-04T01:36:00+09:00,1.3,���쓌,2.4,�쓌,25.6,83.4,0,0,0,0
2023-09-04T01:37:00+09:00,1.5,���쓌,2.5,��,25.6,83.4,0,0,0,0
2023-09-04T01:38:00+09:00,1.5,���쓌,2.5,��,25.7,83.3,0,0,0,0
2023-09-04T01:39:00+09:00,1.5,���쓌,2.5,��,25.6,83,0,0,0,0
2023-09-04T01:40:00+09:00,1.6,���쓌,2.5,��,25.6,83,0,0,0,0
2023-09-04T01:41:00+09:00,1.7,���쓌,2.7,��,25.6,83,0,0,0,0
2023-09-04T01:42:00+09:00,1.7,���쓌,2.8,���쓌,25.7,83.1,0,0,0,0
2023-09-04T01:43:00+09:00,1.6,��,2.8,���쓌,25.7,82.8,0,0,0,0
2023-09-04T01:44:00+09:00,1.6,��,2.8,���쓌,25.7,82.6,0,0,0,0
2023-09-04T01:45:00+09:00,1.7,��,2.9,���k��,25.6,82.7,0,0,0,0
2023-09-04T01:46:00+09:00,1.7,��,2.9,���k��,25.6,82.8,0,0,0,0
2023-09-04T01:47:00+09:00,1.7,��,2.9,���k��,25.7,83.2,0,0,0,0
2023-09-04T01:48:00+09:00,1.7,��,2.9,���k��,25.7,83.1,0,0,0,0
2023-09-04T01:49:00+09:00,1.8,��,2.9,���k��,25.6,83,0,0,0,0
2023-09-04T01:50:00+09:00,1.8,��,2.9,���k��,25.6,83,0,0,0,0
2023-09-04T01:51:00+09:00,1.7,��,2.9,���k��,25.6,83,0,0,0,0
2023-09-04T01:52:00+09:00,1.6,��,2.9,���k��,25.5,83.1,0,0,0,0
2023-09-04T01:53:00+09:00,1.5,��,2.9,���k��,25.5,83.3,0,0,0,0
2023-09-04T01:54:00+09:00,1.5,��,2.9,���k��,25.4,83.5,0,0,0,0
2023-09-04T01:55:00+09:00,1.3,��,2.5,���쓌,25.4,83.8,0,0,0,0
2023-09-04T01:56:00+09:00,1.3,��,2.5,���쓌,25.4,84.1,0,0,0,0
2023-09-04T01:57:00+09:00,1.2,��,2.5,���쓌,25.4,84.4,0,0,0,0
2023-09-04T01:58:00+09:00,1.2,��,3,��,25.4,84.5,0,0,0,0
2023-09-04T01:59:00+09:00,1.2,��,3,��,25.5,84.7,0,0,0,0
2023-09-04T02:00:00+09:00,1.2,��,3,��,25.5,84.5,0,0,0,0
2023-09-04T02:01:00+09:00,1.2,��,3,��,25.5,84.4,0,0,0,0
2023-09-04T02:02:00+09:00,1.3,��,3,��,25.4,84.3,0,0,0,0
2023-09-04T02:03:00+09:00,1.3,��,3,��,25.5,84.4,0,0,0,0
2023-09-04T02:04:00+09:00,1.4,��,3,��,25.5,84.5,0,0,0,0
2023-09-04T02:05:00+09:00,1.5,��,3,��,25.5,84.5,0,0,0,0
2023-09-04T02:06:00+09:00,1.5,��,3,��,25.5,84.5,0,0,0,0
2023-09-04T02:07:00+09:00,1.5,��,3,��,25.5,84.4,0,0,0,0
2023-09-04T02:08:00+09:00,1.4,��,2.7,���쓌,25.5,84.2,0,0,0,0
2023-09-04T02:09:00+09:00,1.5,��,2.7,���쓌,25.5,84.1,0,0,0,0
2023-09-04T02:10:00+09:00,1.5,��,2.7,���쓌,25.5,84.1,0,0,0,0
2023-09-04T02:11:00+09:00,1.5,��,2.7,���쓌,25.5,84.2,0,0,0,0
2023-09-04T02:12:00+09:00,1.4,��,2.7,���쓌,25.4,84.2,0,0,0,0
2023-09-04T02:13:00+09:00,1.4,��,2.7,���쓌,25.4,84.3,0,0,0,0
2023-09-04T02:14:00+09:00,1.3,��,2.5,��,25.4,84.3,0,0,0,0
2023-09-04T02:15:00+09:00,1.3,��,2.3,���쓌,25.4,84.4,0,0,0,0
2023-09-04T02:16:00+09:00,1.2,��,2.3,���쓌,25.4,84.3,0,0,0,0
2023-09-04T02:17:00+09:00,1.2,��,2.3,���쓌,25.4,84.3,0,0,0,0
2023-09-04T02:18:00+09:00,1.2,��,2.3,���쓌,25.3,84.4,0,0,0,0
2023-09-04T02:19:00+09:00,1.1,��,2.1,���k��,25.3,84.6,0,0,0,0
2023-09-04T02:20:00+09:00,1.1,��,2.1,���k��,25.2,84.8,0,0,0,0
2023-09-04T02:21:00+09:00,1.1,���k��,2.1,���k��,25.2,85.1,0,0,0,0
2023-09-04T02:22:00+09:00,1.1,���k��,2.1,���k��,25.2,85.4,0,0,0,0
2023-09-04T02:23:00+09:00,1.1,��,2.1,���k��,25.1,85.6,0,0,0,0
2023-09-04T02:24:00+09:00,1.2,��,2.1,���k��,25.1,85.8,0,0,0,0
2023-09-04T02:25:00+09:00,1.2,��,2.1,���k��,25.2,86.2,0,0,0,0
2023-09-04T02:26:00+09:00,1.3,��,2.2,���k��,25.2,86.3,0,0,0,0
2023-09-04T02:27:00+09:00,1.4,��,2.2,���k��,25.2,86.4,0,0,0,0
2023-09-04T02:28:00+09:00,1.3,��,2.3,���k��,25.1,86.5,0,0,0,0
2023-09-04T02:29:00+09:00,1.3,��,2.3,���k��,25.1,86.6,0,0,0,0
2023-09-04T02:30:00+09:00,1.4,��,2.3,���k��,25.1,86.8,0,0,0,0
2023-09-04T02:31:00+09:00,1.4,��,2.3,���k��,25,87,0,0,0,0
2023-09-04T02:32:00+09:00,1.4,��,2.3,���k��,25,87.2,0,0,0,0
2023-09-04T02:33:00+09:00,1.3,��,2.3,���k��,25,87.7,0,0,0,0
2023-09-04T02:34:00+09:00,1.3,��,2.3,���k��,25,87.6,0,0,0,0
2023-09-04T02:35:00+09:00,1.3,��,2.3,���k��,25,87.7,0,0,0,0
2023-09-04T02:36:00+09:00,1.3,��,2.3,���k��,25,87.8,0,0,0,0
2023-09-04T02:37:00+09:00,1.3,��,2.3,���k��,25,88,0,0,0,0
2023-09-04T02:38:00+09:00,1.3,��,2.3,��,25,88.1,0,0,0,0
2023-09-04T02:39:00+09:00,1.3,��,2.3,��,25,88,0,0,0,0
2023-09-04T02:40:00+09:00,1.3,��,2.3,��,25,88,0,0,0,0
2023-09-04T02:41:00+09:00,1.2,��,2.3,��,25,88,0,0,0,0
2023-09-04T02:42:00+09:00,1.2,��,2.3,��,25,88,0,0,0,0
2023-09-04T02:43:00+09:00,1.3,��,2.3,��,25,88,0,0,0,0
2023-09-04T02:44:00+09:00,1.3,��,2.3,��,25,87.9,0,0,0,0
2023-09-04T02:45:00+09:00,1.2,��,2.3,��,25,88,0,0,0,0
2023-09-04T02:46:00+09:00,1.2,��,2,���쓌,25,87.9,0,0,0,0
2023-09-04T02:47:00+09:00,1.1,��,2,���쓌,25,87.9,0,0,0,0
2023-09-04T02:48:00+09:00,1.1,��,2,���쓌,25.2,88.2,0,0,0,0
2023-09-04T02:49:00+09:00,1,��,1.6,��,25.2,87.9,0,0,0,0
2023-09-04T02:50:00+09:00,1,���쓌,1.6,��,25.2,87.5,0,0,0,0
2023-09-04T02:51:00+09:00,0.9,���쓌,1.6,��,25.1,87.4,0,0,0,0
2023-09-04T02:52:00+09:00,0.9,���쓌,1.6,��,25.1,87.5,0,0,0,0
2023-09-04T02:53:00+09:00,0.9,���쓌,1.6,��,25.1,87.5,0,0,0,0
2023-09-04T02:54:00+09:00,0.9,���쓌,1.5,��,25.1,87.3,0,0,0,0
2023-09-04T02:55:00+09:00,0.8,�쓌,1.5,��,25.3,88,0,0,0,0
2023-09-04T02:56:00+09:00,0.7,�쓌,1.5,��,25.4,88,0,0,0,0
2023-09-04T02:57:00+09:00,0.7,�쓌,1.4,��쓌,25.3,87.4,0,0,0,0
2023-09-04T02:58:00+09:00,0.6,�쓌,1.4,��쓌,25.3,87.2,0,0,0,0
2023-09-04T02:59:00+09:00,0.7,�쓌,2,��,25.3,87.1,0,0,0,0
2023-09-04T03:00:00+09:00,0.7,�쓌,2,��,25.3,87.1,0,0,0,0
2023-09-04T03:01:00+09:00,0.6,��쓌,2,��,25.3,87.1,0,0,0,0
2023-09-04T03:02:00+09:00,0.7,��쓌,2,��,25.2,87,0,0,0,0
2023-09-04T03:03:00+09:00,0.7,��쓌,2,��,25.2,86.9,0,0,0,0
2023-09-04T03:04:00+09:00,0.6,��,2,��,25.4,87.5,0,0,0,0
2023-09-04T03:05:00+09:00,0.7,��,2,��,25.4,86.9,0,0,0,0
2023-09-04T03:06:00+09:00,0.7,��,2,��,25.3,86.5,0,0,0,0
2023-09-04T03:07:00+09:00,0.7,��,2,��,25.4,86.4,0,0,0,0
2023-09-04T03:08:00+09:00,0.8,��,2,��,25.4,86.3,0,0,0,0
2023-09-04T03:09:00+09:00,0.7,��,1.8,��쐼,25.4,86.2,0,0,0,0
2023-09-04T03:10:00+09:00,0.7,��,1.8,��쐼,25.4,86.4,0,0,0,0
2023-09-04T03:11:00+09:00,0.7,��,1.8,��쐼,25.4,86.1,0,0,0,0
2023-09-04T03:12:00+09:00,0.6,��쓌,1.8,��쐼,25.4,86.1,0,0,0,0
2023-09-04T03:13:00+09:00,0.5,��쓌,1.6,�쓌,25.4,86.1,0,0,0,0
2023-09-04T03:14:00+09:00,0.5,�쓌,1.6,�쓌,25.4,86,0,0,0,0
2023-09-04T03:15:00+09:00,0.6,�쓌,2,���쓌,25.4,86.3,0,0,0,0
2023-09-04T03:16:00+09:00,0.7,�쓌,2.2,��,25.5,86.2,0,0,0,0
2023-09-04T03:17:00+09:00,0.7,���쓌,2.2,��,25.5,86,0,0,0,0
2023-09-04T03:18:00+09:00,0.8,���쓌,2.2,��,25.7,85.9,0,0,0,0
2023-09-04T03:19:00+09:00,1,���쓌,2.6,��,25.7,85.3,0,0,0,0
2023-09-04T03:20:00+09:00,1.2,���쓌,3.2,���쓌,25.6,85.1,0,0,0,0
2023-09-04T03:21:00+09:00,1.5,���쓌,3.2,���쓌,25.7,84.9,0,0,0,0
2023-09-04T03:22:00+09:00,1.7,���쓌,3.4,��,25.7,84.8,0,0,0,0
2023-09-04T03:23:00+09:00,1.9,���쓌,3.6,���쓌,25.7,84.7,0,0,0,0
2023-09-04T03:24:00+09:00,2.1,���쓌,4.9,��,25.7,84.6,0,0,0,0
2023-09-04T03:25:00+09:00,2.1,���쓌,4.9,��,25.8,84.6,0,0,0,0
2023-09-04T03:26:00+09:00,2.1,���쓌,4.9,��,25.8,84.3,0,0,0,0
2023-09-04T03:27:00+09:00,2.2,���쓌,4.9,��,25.8,84.1,0,0,0,0
2023-09-04T03:28:00+09:00,2.3,���쓌,4.9,��,25.8,84,0,0,0,0
2023-09-04T03:29:00+09:00,2.3,���쓌,4.9,��,25.8,83.9,0,0,0,0
2023-09-04T03:30:00+09:00,2.3,���쓌,4.9,��,25.8,83.8,0,0,0,0
2023-09-04T03:31:00+09:00,2.4,���쓌,4.9,��,25.9,83.7,0,0,0,0
2023-09-04T03:32:00+09:00,2.3,���쓌,4.9,��,25.9,83.6,0,0,0,0
2023-09-04T03:33:00+09:00,2.3,���쓌,4.9,��,25.9,83.5,0,0,0,0
2023-09-04T03:34:00+09:00,2.2,���쓌,4,���쓌,25.8,83.4,0,0,0,0
2023-09-04T03:35:00+09:00,2.3,���쓌,4,���쓌,25.8,83.5,0,0,0,0
2023-09-04T03:36:00+09:00,2.4,���쓌,4,���쓌,25.9,83.5,0,0,0,0
2023-09-04T03:37:00+09:00,2.3,���쓌,4,���쓌,25.8,83.5,0,0,0,0
2023-09-04T03:38:00+09:00,2.3,���쓌,4,���쓌,25.8,83.5,0,0,0,0
2023-09-04T03:39:00+09:00,2.2,���쓌,3.6,���쓌,25.8,83.5,0,0,0,0
2023-09-04T03:40:00+09:00,2.2,��,3.6,���쓌,25.8,83.6,0,0,0,0
2023-09-04T03:41:00+09:00,2.2,��,3.6,���쓌,25.8,83.7,0,0,0,0
2023-09-04T03:42:00+09:00,2.3,��,3.6,���쓌,25.8,83.8,0,0,0,0
2023-09-04T03:43:00+09:00,2.3,��,3.6,���쓌,25.8,83.9,0,0,0,0
2023-09-04T03:44:00+09:00,2.4,��,3.8,���쓌,25.8,83.9,0,0,0,0
2023-09-04T03:45:00+09:00,2.4,��,4.6,��,25.8,83.9,0,0,0,0
2023-09-04T03:46:00+09:00,2.5,��,4.6,��,25.8,83.8,0,0,0,0
2023-09-04T03:47:00+09:00,2.5,��,4.6,��,25.8,83.7,0,0,0,0
2023-09-04T03:48:00+09:00,2.5,��,4.6,��,25.8,83.8,0,0,0,0
2023-09-04T03:49:00+09:00,2.5,��,4.6,��,25.8,83.9,0,0,0,0
2023-09-04T03:50:00+09:00,2.5,��,4.6,��,25.8,83.9,0,0,0,0
2023-09-04T03:51:00+09:00,2.4,��,4.6,��,25.8,83.8,0,0,0,0
2023-09-04T03:52:00+09:00,2.3,��,4.6,��,25.8,83.8,0,0,0,0
2023-09-04T03:53:00+09:00,2.3,��,4.6,��,25.8,83.8,0,0,0,0
2023-09-04T03:54:00+09:00,2.2,��,4.6,��,25.8,83.9,0,0,0,0
2023-09-04T03:55:00+09:00,2,��,3.6,��,25.8,84,0,0,0,0
2023-09-04T03:56:00+09:00,1.9,��,3.2,���쓌,25.8,83.9,0,0,0,0
2023-09-04T03:57:00+09:00,1.8,��,3.2,���쓌,25.7,84,0,0,0,0
2023-09-04T03:58:00+09:00,1.7,��,3.2,���쓌,25.7,84.1,0,0,0,0
2023-09-04T03:59:00+09:00,,,,,,,,,,
2023-09-04T04:00:00+09:00,1.8,��,3.5,���k��,25.8,84.2,0,0,0,0
2023-09-04T04:01:00+09:00,1.8,��,3.7,���쓌,25.8,84.2,0,0,0,0
2023-09-04T04:02:00+09:00,1.8,��,3.7,���쓌,25.8,84.1,0,0,0,0
2023-09-04T04:03:00+09:00,1.9,��,4,���쓌,25.8,84.2,0,0,0,0
2023-09-04T04:04:00+09:00,2,��,4.7,���쓌,25.8,84.1,0,0,0,0
2023-09-04T04:05:00+09:00,2.2,��,4.7,���쓌,25.8,84.1,0,0,0,0
2023-09-04T04:06:00+09:00,2.3,��,4.7,���쓌,25.8,84,0,0,0,0
2023-09-04T04:07:00+09:00,2.4,��,4.7,���쓌,25.9,83.9,0,0,0,0
2023-09-04T04:08:00+09:00,2.4,��,4.7,���쓌,25.9,83.7,0,0,0,0
2023-09-04T04:09:00+09:00,2.5,��,4.7,���쓌,25.9,83.7,0,0,0,0
2023-09-04T04:10:00+09:00,2.5,��,4.7,���쓌,25.9,83.7,0,0,0,0
2023-09-04T04:11:00+09:00,2.4,��,4.7,���쓌,25.9,83.5,0,0,0,0
2023-09-04T04:12:00+09:00,2.3,��,4.7,���쓌,26,83.3,0,0,0,0
2023-09-04T04:13:00+09:00,2.2,��,4.7,���쓌,25.9,83.3,0,0,0,0
2023-09-04T04:14:00+09:00,2,���쓌,4.1,��,25.9,83.5,0,0,0,0
2023-09-04T04:15:00+09:00,1.9,���쓌,4.1,��,25.9,83.7,0,0,0,0
2023-09-04T04:16:00+09:00,1.7,���쓌,3.5,���쓌,25.8,83.9,0,0,0,0
2023-09-04T04:17:00+09:00,1.6,���쓌,3.5,���쓌,25.8,84,0,0,0,0
2023-09-04T04:18:00+09:00,1.5,�쓌,3.5,���쓌,25.8,84.2,0,0,0,0
2023-09-04T04:19:00+09:00,1.3,�쓌,3.4,��,25.7,84.4,0,0,0,0
2023-09-04T04:20:00+09:00,1.1,�쓌,2.4,�쓌,25.8,84.8,0,0,0,0
2023-09-04T04:21:00+09:00,1,�쓌,2.2,��,25.8,84.8,0,0,0,0
2023-09-04T04:22:00+09:00,1,�쓌,2.2,��,25.8,84.5,0,0,0,0
2023-09-04T04:23:00+09:00,0.9,�쓌,2.2,��,25.8,84.5,0,0,0,0
2023-09-04T04:24:00+09:00,0.9,�쓌,2.2,��,25.7,84.5,0,0,0,0
2023-09-04T04:25:00+09:00,1,���쓌,2.7,���쓌,25.7,84.6,0,0,0,0
2023-09-04T04:26:00+09:00,1.1,���쓌,3,��,25.8,84.5,0,0,0,0
2023-09-04T04:27:00+09:00,1.1,���쓌,3,��,25.8,84.5,0,0,0,0
2023-09-04T04:28:00+09:00,1.2,���쓌,3.1,���쓌,25.9,84.3,0,0,0,0
2023-09-04T04:29:00+09:00,1.4,��,3.1,���쓌,25.9,84.1,0,0,0,0
2023-09-04T04:30:00+09:00,1.5,��,3.1,���쓌,25.9,83.9,0,0,0,0
2023-09-04T04:31:00+09:00,1.6,���쓌,3.1,���쓌,25.9,83.7,0,0,0,0
2023-09-04T04:32:00+09:00,1.7,���쓌,3.5,���쓌,25.9,83.6,0,0,0,0
2023-09-04T04:33:00+09:00,1.9,��,3.5,���쓌,25.9,83.5,0,0,0,0
2023-09-04T04:34:00+09:00,1.9,��,3.5,���쓌,25.9,83.4,0,0,0,0
2023-09-04T04:35:00+09:00,2,��,3.5,���쓌,25.9,83.3,0,0,0,0
2023-09-04T04:36:00+09:00,2,��,3.5,���쓌,25.9,83.2,0,0,0,0
2023-09-04T04:37:00+09:00,2.1,��,3.5,���쓌,25.9,83.2,0,0,0,0
2023-09-04T04:38:00+09:00,1.9,��,3.5,���쓌,26,83.1,0,0,0,0
2023-09-04T04:39:00+09:00,1.9,��,3.5,���쓌,25.9,83.1,0,0,0,0
2023-09-04T04:40:00+09:00,2,��,4.5,���k��,25.9,83,0,0,0,0
2023-09-04T04:41:00+09:00,2,��,4.5,���k��,25.9,83,0,0,0,0
2023-09-04T04:42:00+09:00,1.8,��,4.5,���k��,25.9,83,0,0,0,0
2023-09-04T04:43:00+09:00,1.8,��,4.5,���k��,25.9,82.9,0,0,0,0
2023-09-04T04:44:00+09:00,1.8,���k��,4.5,���k��,25.9,82.9,0,0,0,0
2023-09-04T04:45:00+09:00,1.7,��,4.5,���k��,25.9,82.8,0,0,0,0
2023-09-04T04:46:00+09:00,1.6,��,4.5,���k��,25.9,82.8,0,0,0,0
2023-09-04T04:47:00+09:00,1.6,��,4.5,���k��,25.9,82.8,0,0,0,0
2023-09-04T04:48:00+09:00,1.6,��,4.5,���k��,25.9,82.8,0,0,0,0
2023-09-04T04:49:00+09:00,1.6,���k��,4.5,���k��,25.9,82.8,0,0,0,0
2023-09-04T04:50:00+09:00,1.6,��,3.7,�쓌,25.9,82.9,0,0,0,0
2023-09-04T04:51:00+09:00,1.7,��,4.2,���쓌,25.9,83,0,0,0,0
2023-09-04T04:52:00+09:00,1.7,��,4.2,���쓌,25.9,83.1,0,0,0,0
2023-09-04T04:53:00+09:00,1.7,��,4.2,���쓌,25.9,83,0,0,0,0
2023-09-04T04:54:00+09:00,1.7,��,4.2,���쓌,25.9,82.9,0,0,0,0
2023-09-04T04:55:00+09:00,1.7,��,4.2,���쓌,25.9,82.9,0,0,0,0
2023-09-04T04:56:00+09:00,1.6,��,4.2,���쓌,25.9,83,0,0,0,0
2023-09-04T04:57:00+09:00,1.7,��,4.2,���쓌,25.9,83,0,0,0,0
2023-09-04T04:58:00+09:00,1.7,���쓌,4.2,���쓌,25.9,83.1,0,0,0,0
2023-09-04T04:59:00+09:00,1.7,���쓌,4.2,���쓌,25.9,82.9,0,0,0,0
2023-09-04T05:00:00+09:00,1.7,���쓌,4.2,���쓌,25.9,82.9,0,0,0,0
2023-09-04T05:01:00+09:00,1.7,��,4.1,��,25.9,82.8,0,0,0,0
2023-09-04T05:02:00+09:00,1.9,��,4.4,��,25.9,82.7,0,0,0,0
2023-09-04T05:03:00+09:00,2,���쓌,4.4,��,26,82.6,0,0,0,0
2023-09-04T05:04:00+09:00,2.1,���쓌,4.4,��,26,82.5,0,0,0,0
2023-09-04T05:05:00+09:00,2.2,���쓌,4.4,��,26,82.4,0,0,0,0
2023-09-04T05:06:00+09:00,2.4,���쓌,5,���쓌,26,82.4,0,0,0,0
2023-09-04T05:07:00+09:00,2.6,���쓌,5.6,���쓌,26,82.4,0,0,0,0
2023-09-04T05:08:00+09:00,2.8,���쓌,5.6,���쓌,26,82.4,0,0,0,0
2023-09-04T05:09:00+09:00,3,���쓌,5.6,���쓌,26.1,82.2,0,0,0,0
2023-09-04T05:10:00+09:00,3.1,���쓌,5.6,���쓌,26.1,82.2,0,0,0,0
2023-09-04T05:11:00+09:00,3.2,���쓌,5.6,���쓌,26.1,82.2,0,0,0,0
2023-09-04T05:12:00+09:00,3.1,���쓌,5.6,���쓌,26.1,82,0,0,0,0
2023-09-04T05:13:00+09:00,3.2,���쓌,5.6,���쓌,26.1,82,0,0,0,0
2023-09-04T05:14:00+09:00,3.1,���쓌,5.6,���쓌,26.1,82,0,0,0,0
2023-09-04T05:15:00+09:00,3.2,���쓌,5.6,���쓌,26.1,81.9,0,0,0,0
2023-09-04T05:16:00+09:00,3.1,���쓌,5.6,���쓌,26.1,82,0,0,0,0
2023-09-04T05:17:00+09:00,3,���쓌,4.9,���쓌,26.1,82,0,0,0,0
2023-09-04T05:18:00+09:00,2.8,��,4.9,���쓌,26,82,0,0,0,0
2023-09-04T05:19:00+09:00,2.7,��,4.9,���쓌,26,82.1,0,0,0,0
2023-09-04T05:20:00+09:00,2.7,��,4.8,���쓌,26.1,82.2,0,0,0,0
2023-09-04T05:21:00+09:00,2.6,��,4.5,��,26.1,82.3,0,0,0,0
2023-09-04T05:22:00+09:00,2.5,��,4.5,��,26.1,82.2,0,0,0,0
2023-09-04T05:23:00+09:00,2.3,��,4.5,��,26.1,82.1,0,0,0,0
2023-09-04T05:24:00+09:00,2.3,��,4.5,��,26,82.1,0,0,0,0
2023-09-04T05:25:00+09:00,2.2,��,4,���쓌,26.1,82.2,0,0,0,0
2023-09-04T05:26:00+09:00,2.1,��,3.8,��,26,82.3,0,0,0,0
2023-09-04T05:27:00+09:00,2.2,��,4.4,���k��,26.1,82.3,0,0,0,0
2023-09-04T05:28:00+09:00,2.3,��,4.4,���k��,26.1,82.3,0,0,0,0
2023-09-04T05:29:00+09:00,2.3,��,4.4,���k��,26.1,82.2,0,0,0,0
2023-09-04T05:30:00+09:00,2.2,��,4.4,���k��,26,82.2,0,0,0,0
2023-09-04T05:31:00+09:00,2.1,���k��,4.4,���k��,26,82.3,0,0,0,0
2023-09-04T05:32:00+09:00,2.1,��,4.4,���k��,26,82.3,0,0,0,0
2023-09-04T05:33:00+09:00,2.2,���k��,4.6,�k��,26,82.4,0,0,0,0
2023-09-04T05:34:00+09:00,2.3,���k��,4.6,�k��,26,82.3,0,0,0,0
2023-09-04T05:35:00+09:00,2.4,���k��,4.6,�k��,26.1,82.3,0,0,0,0
2023-09-04T05:36:00+09:00,2.5,���k��,6.2,���k��,26.1,82.1,0,0,0,0
2023-09-04T05:37:00+09:00,2.7,���k��,6.2,���k��,26.1,82,0,0,0,0
2023-09-04T05:38:00+09:00,2.7,���k��,6.2,���k��,26.1,81.8,0,0,0,0
2023-09-04T05:39:00+09:00,2.8,���k��,6.2,���k��,26.1,81.7,0,0,0,0
2023-09-04T05:40:00+09:00,2.7,���k��,6.2,���k��,26.1,81.8,0,0,0,0
2023-09-04T05:41:00+09:00,2.8,��,6.2,���k��,26.1,81.9,0,0,0,0
2023-09-04T05:42:00+09:00,2.8,���k��,6.2,���k��,26.1,82,0,0,0,0
2023-09-04T05:43:00+09:00,2.7,��,6.2,���k��,26.1,82.1,0,0,0,0
2023-09-04T05:44:00+09:00,2.7,��,6.2,���k��,26.1,82.1,0,0,0,0
2023-09-04T05:45:00+09:00,2.7,��,6.2,���k��,26.1,82.2,0,0,0,0
2023-09-04T05:46:00+09:00,2.6,��,5.6,���k��,26.1,82.1,0,0,0,0
2023-09-04T05:47:00+09:00,2.3,��,4.3,���k��,26.2,82,0,0,0,0
2023-09-04T05:48:00+09:00,2.2,��,3.8,���쓌,26.2,81.9,0,0,0,0
2023-09-04T05:49:00+09:00,2.2,��,4,���쓌,26.2,81.8,0,0,0,0
2023-09-04T05:50:00+09:00,2.3,��,4,���쓌,26.2,81.8,0,0,0,0
2023-09-04T05:51:00+09:00,2.4,��,4.2,���쓌,26.2,81.7,0,0,0,0
2023-09-04T05:52:00+09:00,2.4,��,4.2,���쓌,26.2,81.6,0,0,0,0
2023-09-04T05:53:00+09:00,2.4,��,4.2,���쓌,26.2,81.5,0,0,0,0
2023-09-04T05:54:00+09:00,2.3,��,4.2,���쓌,26.2,81.4,0,0,0,0
2023-09-04T05:55:00+09:00,2.3,��,4.2,���쓌,26.2,81.4,0,0,0,0
2023-09-04T05:56:00+09:00,2.2,��,4.2,���쓌,26.2,81.4,0,0,0,0
2023-09-04T05:57:00+09:00,2.3,��,4.2,���쓌,26.2,81.5,0,0,0,0
2023-09-04T05:58:00+09:00,2.5,��,5.1,���쓌,26.2,81.7,0,0,0,0
2023-09-04T05:59:00+09:00,2.5,��,5.1,���쓌,26.2,81.6,0,0,0,0
2023-09-04T06:00:00+09:00,2.4,��,5.1,���쓌,26.2,81.5,0,0,0,0
2023-09-04T06:01:00+09:00,2.3,��,5.1,���쓌,26.2,81.5,0,0,0,0
2023-09-04T06:02:00+09:00,2.2,��,5.1,���쓌,26.2,81.6,0,0,0,0
2023-09-04T06:03:00+09:00,2.2,��,5.1,���쓌,26.2,81.6,0,0,0,0
2023-09-04T06:04:00+09:00,2.3,��,5.1,���쓌,26.2,81.7,0,0,0,0
2023-09-04T06:05:00+09:00,2.4,��,5.2,���쓌,26.2,81.7,0,0,0,0
2023-09-04T06:06:00+09:00,2.5,��,5.2,���쓌,26.2,81.7,0,0,0,0
2023-09-04T06:07:00+09:00,2.7,��,6.9,�k��,26.2,81.6,0,0,0,0
2023-09-04T06:08:00+09:00,2.6,��,6.9,�k��,26.3,81.4,0,0,0,0
2023-09-04T06:09:00+09:00,2.7,��,6.9,�k��,26.2,81.3,0,0,0,0
2023-09-04T06:10:00+09:00,2.7,��,6.9,�k��,26.2,81.2,0,0,0,0
2023-09-04T06:11:00+09:00,2.7,��,6.9,�k��,26.2,81.3,0,0,0,0
2023-09-04T06:12:00+09:00,2.7,���k��,6.9,�k��,26.2,81.4,0,0,0,0
2023-09-04T06:13:00+09:00,2.8,���k��,6.9,�k��,26.2,81.5,0,0,0,0
2023-09-04T06:14:00+09:00,2.8,���k��,6.9,�k��,26.2,81.5,0,0,0,0
2023-09-04T06:15:00+09:00,2.6,���k��,6.9,�k��,26.2,81.5,0,0,0,0
2023-09-04T06:16:00+09:00,2.5,���k��,6.9,�k��,26.2,81.5,0,0,0,0
2023-09-04T06:17:00+09:00,2.2,���k��,4.7,���k��,26.2,81.5,0,0,0,0
2023-09-04T06:18:00+09:00,2.1,���k��,4.7,���k��,26.2,81.6,0,0,0,0
2023-09-04T06:19:00+09:00,2,���k��,4.5,���k��,26.2,81.7,0,0,0,0
2023-09-04T06:20:00+09:00,2,���k��,4.5,���k��,26.2,81.7,0,0,0,0
2023-09-04T06:21:00+09:00,2.1,���k��,4.5,���k��,26.2,81.6,0,0,0,0
2023-09-04T06:22:00+09:00,2.2,���k��,4.5,���k��,26.2,81.7,0,0,0,0
2023-09-04T06:23:00+09:00,2.1,��,4,���k��,26.2,81.6,0,0,0,0
2023-09-04T06:24:00+09:00,2.1,��,4,���k��,26.2,81.6,0,0,0,0
2023-09-04T06:25:00+09:00,2,��,4,���k��,26.2,81.7,0,0,0,0
2023-09-04T06:26:00+09:00,1.9,��,4,���k��,26.2,81.5,0,0,0,0
2023-09-04T06:27:00+09:00,2,��,4,���k��,26.3,81.5,0,0,0,0
2023-09-04T06:28:00+09:00,2,���k��,4,���k��,26.3,81.4,0,0,0,0
2023-09-04T06:29:00+09:00,2,��,4,���k��,26.3,81.3,0,0,0,0
2023-09-04T06:30:00+09:00,2,��,4,���k��,26.3,81.3,0,0,0,0
2023-09-04T06:31:00+09:00,2.1,��,4,���k��,26.3,81.4,0,0,0,0
2023-09-04T06:32:00+09:00,2.2,���k��,5.7,�k��,26.3,81.2,0,0,0,0
2023-09-04T06:33:00+09:00,2.2,���k��,5.7,�k��,26.3,81.1,0,0,0,0
2023-09-04T06:34:00+09:00,2.3,���k��,5.7,�k��,26.3,81,0,0,0,0
2023-09-04T06:35:00+09:00,2.5,���k��,5.7,�k��,26.3,80.9,0,0,0,0
2023-09-04T06:36:00+09:00,2.6,���k��,5.7,�k��,26.3,80.8,0,0,0,0
2023-09-04T06:37:00+09:00,2.6,���k��,5.7,�k��,26.3,80.7,0,0,0,0
2023-09-04T06:38:00+09:00,2.6,��,5.7,�k��,26.4,80.5,0,0,0,0
2023-09-04T06:39:00+09:00,2.5,���k��,5.7,�k��,26.3,80.6,0,0,0,0
2023-09-04T06:40:00+09:00,2.4,���k��,5.7,�k��,26.3,80.6,0,0,0,0